This is the latest recevied weather packets stored in our database for station/object C31FR-13. If no packets are shown the sender has not sent any weather packets the latest 10 day(s).
| Time | Temp. | Humidity | Pressure | Rain* | Wind** | Luminosity | Snow |
|---|---|---|---|---|---|---|---|
| 1788650462 | 23.89° C | 41% | 1028 hPa | - | - | - | - |
| 1788649563 | 23.89° C | 41% | 1028 hPa | - | - | - | - |
| 1788648962 | 23.89° C | 40% | 1028 hPa | - | - | - | - |
| 1788648663 | 23.89° C | 41% | 1028 hPa | - | - | - | - |
| 1788648363 | 24.44° C | 40% | 1028 hPa | - | - | - | - |
| 1788646262 | 25° C | 39% | 1027.9 hPa | - | - | - | - |
| 1788645662 | 25° C | 39% | 1028 hPa | - | - | - | - |
| 1788644462 | 25° C | 38% | 1027.8 hPa | - | - | - | - |
| 1788642663 | 25.56° C | 38% | 1027.7 hPa | - | - | - | - |
| 1788640862 | 25.56° C | 37% | 1027.5 hPa | - | - | - | - |
| 1788640263 | 26.11° C | 37% | 1027.5 hPa | - | - | - | - |
| 1788639062 | 26.11° C | 37% | 1027.2 hPa | - | - | - | - |
| 1788636063 | 27.22° C | 35% | 1026.3 hPa | - | - | - | - |
| 1788634263 | 27.78° C | 34% | 1026 hPa | - | - | - | - |
| 1788633063 | 28.33° C | 34% | 1025.7 hPa | - | - | - | - |
| 1788632763 | 28.33° C | 34% | 1025.6 hPa | - | - | - | - |
| 1788632463 | 28.33° C | 34% | 1025.5 hPa | - | - | - | - |
| 1788631862 | 28.89° C | 33% | 1025.3 hPa | - | - | - | - |
| 1788631562 | 28.89° C | 34% | 1025.2 hPa | - | - | - | - |
| 1788628563 | 30° C | 31% | 1024.8 hPa | - | - | - | - |
| 1788627662 | 30.56° C | 29% | 1024.7 hPa | - | - | - | - |
| 1788627063 | 31.11° C | 27% | 1024.7 hPa | - | - | - | - |
| 1788626163 | 31.11° C | 26% | 1024.6 hPa | - | - | - | - |
| 1788624662 | 31.67° C | 24% | 1024.6 hPa | - | - | - | - |
| 1788623763 | 32.22° C | 24% | 1024.4 hPa | - | - | - | - |
* Rain since midnight (hover to see other rain measurements)
** Current wind speed in m/s (hover to see current wind gust speed)